Flag for Sweden Weather past 2 weeks in Borås, Sweden

Now
73 °F

Sunny.


Feels Like: 76 °F
Forecast: 57 / 70 °F
Wind: 3 mph from East

Location: Gothenburg / Landvetter

Current Time: Jul 5, 2015 at 11:04:30 PM

Latest Report: Jul 5, 2015 at 10:20 PM


Visibility: 10 mi

Pressure: 29.89 "Hg

Humidity: 65%

Dew point: 61 °F

Location of BoråsLocation

Historic Weather in Borås — Graph

°F

Borås temperature yesterday

Maximum temperature yesterday: 79 °F (at 2:20 PM)
Minimum temperature yesterday: 59 °F (at 1:50 AM)
Average temperature yesterday: 69 °F

Past Weeks' High & Low Weather Summary

 TemperatureHumidityPressure
High82 °F (Jul 5, 3:20 PM)100% (Jun 21, 2:20 AM)30.39 "Hg (Jun 21, 2:20 AM)
Low45 °F (Jun 27, 2:20 AM)32% (Jul 2, 4:20 PM)29.62 "Hg (Jun 22, 7:50 PM)
Average59 °F75%30.01 "Hg
* Reported Jun 20 9:20 PM — Jul 5 9:20 PM, Borås, Weather by CustomWeather, © 2015

Note: Actual official high and low records may vary slightly from our data, if they occured in-between our weather recording intervals... More about our weather records

Advertising

Borås weather history for previous 24 hours

 ConditionsComfort  
Time TempWeatherWind HumidityBarometerVisibility
9:20 PM
Sun, Jul 5
73 °FSunny.2 mph65%29.89 "Hg10 mi
8:50 PM73 °FSunny.No wind65%29.92 "Hg10 mi
8:20 PM75 °FSunny.3 mph61%29.92 "Hg10 mi
7:50 PM75 °FSunny.6 mph61%29.92 "Hg10 mi
7:20 PM77 °FSunny.5 mph57%29.95 "Hg10 mi
6:50 PM79 °FPassing clouds.7 mph54%29.95 "HgN/A
6:20 PM79 °FSunny.7 mph54%29.95 "Hg10 mi
5:50 PM81 °FSunny.6 mph51%29.98 "Hg10 mi
5:20 PM81 °FSunny.7 mph54%29.98 "Hg10 mi
4:50 PM81 °FPassing clouds.7 mph51%29.98 "HgN/A
4:20 PM82 °FSunny.8 mph48%30.01 "Hg10 mi
3:50 PM82 °FPassing clouds.7 mph48%30.01 "HgN/A
3:20 PM82 °FPassing clouds.6 mph48%30.01 "HgN/A
2:50 PM81 °FSunny.9 mph48%30.04 "Hg10 mi
2:20 PM81 °FPassing clouds.6 mph51%30.04 "HgN/A
1:50 PM81 °FSunny.3 mph45%30.04 "Hg10 mi
1:20 PM81 °FSunny.3 mph48%30.04 "Hg10 mi
12:50 PM81 °FPassing clouds.5 mph51%30.04 "HgN/A
12:20 PM79 °FPassing clouds.5 mph54%30.04 "HgN/A
11:50 AM79 °FSunny.3 mph54%30.07 "Hg10 mi
11:20 AM77 °FPassing clouds.3 mph54%30.07 "HgN/A
10:50 AM75 °FPassing clouds.5 mph54%30.07 "HgN/A
10:20 AM73 °FPassing clouds.6 mph61%30.07 "HgN/A
9:50 AM73 °FPassing clouds.6 mph61%30.07 "HgN/A
9:20 AM73 °FSunny.3 mph53%30.07 "Hg10 mi
8:50 AM72 °FPassing clouds.5 mph65%30.07 "HgN/A
8:20 AM70 °FSunny.6 mph73%30.07 "Hg10 mi
7:50 AM70 °FPassing clouds.5 mph69%30.07 "HgN/A
7:20 AM68 °FSunny.5 mph73%30.07 "Hg10 mi
6:50 AM68 °FSunny.5 mph73%30.07 "Hg10 mi
6:20 AM66 °FSunny.5 mph73%30.07 "Hg10 mi
5:50 AM64 °FSunny.7 mph78%30.07 "Hg10 mi
5:20 AM64 °FSunny.6 mph78%30.07 "Hg10 mi
4:50 AM64 °FClear.6 mph78%30.07 "Hg10 mi
4:20 AM64 °FClear.5 mph78%30.07 "Hg10 mi
3:50 AM63 °FClear.6 mph83%30.09 "Hg10 mi
3:20 AM63 °FClear.2 mph83%30.09 "Hg10 mi
2:50 AM61 °FClear.3 mph88%30.09 "Hg10 mi
2:20 AM61 °FClear.5 mph88%30.09 "Hg10 mi
1:50 AM64 °FClear.3 mph83%30.07 "Hg10 mi
1:20 AM64 °FClear.5 mph83%30.09 "Hg10 mi
12:50 AM66 °FClear.6 mph78%30.07 "Hg10 mi
12:20 AM64 °FClear.5 mph83%30.09 "Hg10 mi
11:50 PM
Sat, Jul 4
66 °FClear.3 mph78%30.12 "Hg10 mi
11:20 PM66 °FClear.3 mph78%30.09 "Hg10 mi
Weather by CustomWeather, © 2015

See weather overviewHow to use our weather pages